[[{"header":{"parameterUnit":"m.s-1","parameterCategory":1,"la1":30.2991,"la2":30.254,"lo1":-89.0895,"lo2":-89.0444,"dy":0.0017,"dx":0.0017,"nx":28,"ny":28,"refTime":"2025-07-18T03:00:00:Z","depth":0,"parameterNumber":2,"parameterNumberName":"U-component_of_WINDS"},"data":[0,0,0,0,0,0,0,0,0,0,0,0,0,0,0,0,0,0,0,0,0,0,0,0,0,0,0,0,0,0,0,0,0,0,0,0,0,0,0,0,0,0,0,0,0,0,0,0,0,0,0,0,0,0,0,0,0,0,1.2578,1.2578,0,1.2562,1.2562,1.2561,1.2552,1.2552,1.2552,1.2552,1.2534,1.2534,1.2534,0,0,0,0,0,0,0,0,0,0,0,0,0,1.2598,1.2598,1.2578,1.2578,1.2578,1.2562,1.2562,1.2561,1.2552,1.2552,1.2552,1.2552,1.2534,1.2534,1.2534,0,0,0,0,0,0,0,0,0,0,0,0,0,1.2587,1.2598,1.2578,1.2571,1.257,1.2562,1.2562,1.2561,1.2552,1.2552,1.2552,1.2552,1.2535,1.2534,1.2533,1.2531,0,0,1.2532,1.2531,0,0,0,0,0,0,0,0,1.2587,1.2586,1.2572,1.2571,1.257,1.2559,1.2562,1.2551,1.2552,1.2559,1.2552,1.2551,1.2542,1.2541,1.2538,1.253,1.2529,1.2531,1.2531,1.2531,1.2531,0,0,0,0,0,0,0,1.2588,1.2586,1.2572,1.2572,1.2571,1.2568,1.2566,1.256,1.2551,1.2558,1.2557,1.2556,1.2542,1.2539,1.2538,1.2529,1.2531,1.2531,1.2531,1.253,1.2515,1.2515,0,0,0,0,0,0,1.259,1.2587,1.2572,1.2571,1.2579,1.2567,1.2565,1.2563,1.2551,1.2549,1.2556,1.2555,1.254,1.2539,1.2537,1.2532,1.2531,1.253,1.253,1.2515,1.2515,1.2515,0,0,0,0,0,0,1.2591,1.2589,1.2573,1.2579,1.2577,1.2567,1.2564,1.2562,1.2559,1.2549,1.2547,1.2554,1.254,1.2538,1.2532,1.2531,1.253,1.2529,1.2515,1.2515,1.2515,1.2522,0,0,0,0,0,0,1.2591,1.2589,1.2589,1.2579,1.2576,1.2569,1.2564,1.2562,1.2558,1.2557,1.2548,1.2546,1.254,1.2533,1.2531,1.253,1.2529,1.2515,1.2515,1.2515,1.2522,1.2523,1.2523,0,0,0,0,0,1.2592,1.2592,1.2589,1.2587,1.2576,1.2569,1.2567,1.256,1.2558,1.2557,1.255,1.2546,1.2532,1.2532,1.2531,1.2529,1.2515,1.2515,1.2515,1.2522,1.2523,1.2523,0,0,0,0,0,0,1.2602,1.2591,1.2587,1.2584,1.2577,1.2567,1.2566,1.2561,1.2555,1.2554,1.2546,1.2544,1.2538,1.2533,1.2534,1.2525,1.2523,1.2522,1.2529,1.2529,1.2529,1.2531,1.2528,0,0,0,0,0,1.2604,1.26,1.259,1.2588,1.2584,1.2575,1.2572,1.2567,1.256,1.2557,1.255,1.2543,1.2536,1.2532,1.2526,1.2521,1.2518,1.2519,1.252,1.252,1.252,1.2515,1.2515,1.2515,1.2515,1.2515,0,0,1.2608,1.2601,1.2599,1.2589,1.2584,1.2578,1.2573,1.2569,1.2564,1.2556,1.255,1.2544,1.2536,1.253,1.2527,1.2525,1.2519,1.252,1.252,1.252,1.2515,1.2515,1.2515,1.2515,1.2515,1.2515,0,0,1.2612,1.2607,1.2604,1.2598,1.2589,1.2583,1.2582,1.2572,1.2568,1.2561,1.2554,1.2549,1.2538,1.2532,1.2527,1.2526,1.2521,1.2524,1.2526,1.2522,1.2522,1.2522,1.252,1.252,1.2524,1.2524,1.2524,0,1.2618,1.2611,1.2603,1.2598,1.2593,1.2585,1.2581,1.2576,1.2565,1.2562,1.256,1.2545,1.2539,1.2531,1.253,1.2527,1.2525,1.2526,1.2522,1.2522,1.2522,1.252,1.252,1.2524,1.2524,1.2524,1.2524,0,1.2617,1.2612,1.261,1.26,1.2595,1.2591,1.2581,1.2577,1.2572,1.2565,1.2557,1.2549,1.254,1.2538,1.2533,1.2528,1.2527,1.2524,1.2522,1.2522,1.2521,1.252,1.2525,1.2525,1.2525,1.2525,0,0,1.2629,1.2613,1.2612,1.2606,1.2595,1.2591,1.2585,1.2576,1.2572,1.2564,1.2558,1.2549,1.2545,1.254,1.2534,1.253,1.2528,1.2527,1.2527,1.2527,1.252,1.2521,1.2521,1.2524,1.2524,1.2524,1.252,0,1.2631,1.2621,1.2613,1.2605,1.2599,1.259,1.2585,1.2577,1.257,1.2563,1.2556,1.2549,1.2545,1.2542,1.2537,1.2529,1.2526,1.2529,1.2518,1.2518,1.252,1.252,1.2523,1.2519,1.2519,1.2519,1.2519,0,1.2632,1.2624,1.2616,1.2604,1.2601,1.2596,1.2586,1.258,1.257,1.2565,1.2558,1.2552,1.2544,1.2542,1.253,1.2532,1.2527,1.2522,1.2522,1.252,1.2518,1.2518,1.2518,1.2518,1.2518,1.2518,1.2518,0,1.264,1.2627,1.262,1.2616,1.2601,1.2598,1.2592,1.2581,1.2576,1.2567,1.2563,1.2553,1.2547,1.2539,1.253,1.2529,1.2518,1.2516,1.2513,1.2513,1.2511,1.2512,1.251,1.2509,1.2509,1.2509,1.2509,0,1.2643,1.2638,1.2623,1.2619,1.2613,1.2603,1.2596,1.2589,1.258,1.2573,1.2565,1.2558,1.2546,1.2538,1.253,1.2521,1.2519,1.2514,1.2512,1.2514,1.2515,1.2511,1.251,1.2509,1.2509,1.2509,1.2509,0,1.2651,1.2641,1.2633,1.2619,1.2615,1.2611,1.2599,1.2594,1.2586,1.2577,1.2574,1.2562,1.2551,1.2541,1.2527,1.2522,1.2512,1.251,1.2516,1.2515,1.2512,1.2512,1.2507,1.2506,1.2506,1.2506,1.2506,0,1.2653,1.2649,1.2635,1.2629,1.2623,1.2615,1.2609,1.2598,1.2592,1.2578,1.2574,1.2563,1.2554,1.2538,1.2527,1.2516,1.2512,1.2511,1.2511,1.2513,1.2511,1.2511,1.251,1.2512,1.2512,1.2512,1.2512,0,1.2658,1.2653,1.2645,1.2634,1.2626,1.2618,1.2608,1.2604,1.2591,1.2584,1.2574,1.2566,1.2551,1.254,1.2527,1.2519,1.2513,1.2512,1.2511,1.2513,1.2516,1.2513,1.2516,1.2512,1.2512,1.2512,1.2512,1.2512,1.2663,1.2658,1.2646,1.2637,1.2628,1.2619,1.2613,1.2604,1.2594,1.2582,1.2575,1.2564,1.2552,1.2534,1.2526,1.2516,1.2515,1.2513,1.2512,1.2512,1.2512,1.2518,1.2514,1.2514,1.2514,1.2514,1.2514,0,1.2666,1.2658,1.2649,1.2636,1.2628,1.2622,1.2611,1.2604,1.2594,1.2583,1.2574,1.256,1.2548,1.2536,1.2523,1.2518,1.2514,1.2514,1.2515,1.2513,1.2515,1.2517,1.2517,1.2517,1.2517,1.2517,1.2517,1.2517,1.2667,1.2658,1.2651,1.2637,1.2629,1.2618,1.2611,1.2602,1.2593,1.2578,1.2569,1.256,1.2548,1.2534,1.2522,1.2519,1.2514,1.2515,1.2511,1.2513,1.2513,1.2512,1.2514,1.2514,1.2514,1.2509,1.2509,1.2509]},{"header":{"parameterUnit":"m.s-1","parameterCategory":1,"la1":30.2991,"la2":30.254,"lo1":-89.0895,"lo2":-89.0444,"dy":0.0017,"dx":0.0017,"nx":28,"ny":28,"refTime":"2025-07-18T03:00:00:Z","depth":0,"parameterNumber":3,"parameterNumberName":"V-component_of_WINDS"},"data":[0,0,0,0,0,0,0,0,0,0,0,0,0,0,0,0,0,0,0,0,0,0,0,0,0,0,0,0,0,0,0,0,0,0,0,0,0,0,0,0,0,0,0,0,0,0,0,0,0,0,0,0,0,0,0,0,0,0,1.9816,1.9815,0,1.9711,1.971,1.9709,1.968,1.9681,1.9681,1.9682,1.9571,1.9567,1.9564,0,0,0,0,0,0,0,0,0,0,0,0,0,1.999,1.9987,1.9816,1.9815,1.9814,1.9711,1.971,1.9708,1.968,1.9681,1.9681,1.9682,1.9572,1.9568,1.9564,0,0,0,0,0,0,0,0,0,0,0,0,0,1.9902,1.9986,1.9817,1.9787,1.9784,1.9711,1.971,1.9708,1.968,1.9681,1.9682,1.9682,1.9573,1.9568,1.9563,1.9512,0,0,1.9547,1.9545,0,0,0,0,0,0,0,0,1.9907,1.9896,1.9793,1.9789,1.9785,1.971,1.973,1.9642,1.9679,1.9719,1.9682,1.9683,1.9616,1.9607,1.9585,1.9506,1.9502,1.9546,1.9543,1.9541,1.9539,0,0,0,0,0,0,0,1.9913,1.99,1.9775,1.9791,1.9786,1.9778,1.9767,1.9713,1.9663,1.9716,1.9713,1.9701,1.9614,1.9591,1.9583,1.95,1.9547,1.9542,1.9539,1.9536,1.9373,1.9372,0,0,0,0,0,0,1.9925,1.9906,1.9778,1.9771,1.985,1.9774,1.9762,1.9733,1.9664,1.9655,1.9701,1.97,1.9599,1.9589,1.9579,1.9513,1.9541,1.9536,1.9533,1.9374,1.9372,1.9371,0,0,0,0,0,0,1.9929,1.9914,1.9782,1.9838,1.982,1.977,1.9738,1.973,1.9707,1.9653,1.9643,1.9686,1.96,1.9586,1.9529,1.9509,1.9534,1.9529,1.9375,1.9373,1.9372,1.9383,0,0,0,0,0,0,1.9934,1.9915,1.9896,1.9838,1.9818,1.9735,1.9737,1.9727,1.9698,1.9697,1.9637,1.9628,1.9599,1.9537,1.9523,1.9502,1.9525,1.9377,1.9374,1.9372,1.9384,1.9382,1.938,0,0,0,0,0,1.994,1.9903,1.9895,1.988,1.9793,1.9734,1.9722,1.9691,1.9697,1.9676,1.9642,1.9629,1.9514,1.9531,1.9516,1.9493,1.9378,1.9375,1.9373,1.9385,1.9382,1.938,0,0,0,0,0,0,1.9959,1.9895,1.9885,1.9828,1.9787,1.9729,1.9703,1.9689,1.9645,1.9645,1.9608,1.9594,1.9539,1.951,1.9531,1.9439,1.9445,1.944,1.946,1.9457,1.9455,1.9463,1.952,0,0,0,0,0,1.9957,1.9916,1.9861,1.9816,1.9796,1.9753,1.9726,1.9706,1.9661,1.9643,1.9604,1.956,1.9514,1.9484,1.9438,1.938,1.9366,1.9357,1.9354,1.9353,1.9348,1.9314,1.9309,1.9363,1.9363,1.9363,0,0,1.9952,1.9911,1.9887,1.9819,1.9784,1.9741,1.9738,1.9693,1.966,1.9636,1.9579,1.9549,1.9497,1.9439,1.9412,1.9413,1.9331,1.935,1.9349,1.9345,1.9311,1.9306,1.9302,1.9361,1.9361,1.9361,0,0,1.992,1.9886,1.9844,1.981,1.9758,1.9729,1.972,1.9663,1.9643,1.9586,1.9566,1.9526,1.9448,1.9411,1.9383,1.9337,1.9324,1.9323,1.9312,1.9279,1.9275,1.9271,1.9254,1.9249,1.9319,1.9319,1.9319,0,1.9919,1.9855,1.9824,1.978,1.975,1.9727,1.9683,1.9651,1.9587,1.9566,1.9569,1.9469,1.9433,1.9366,1.9355,1.9333,1.9319,1.933,1.9279,1.9274,1.927,1.9254,1.9247,1.9319,1.9319,1.9319,1.9319,0,1.9856,1.9812,1.9784,1.9724,1.9691,1.9647,1.9609,1.9579,1.9562,1.9533,1.9474,1.943,1.9375,1.9357,1.934,1.9287,1.929,1.9286,1.9292,1.9266,1.925,1.9243,1.9319,1.9319,1.9319,1.9319,0,0,1.9833,1.9756,1.9747,1.9719,1.966,1.9624,1.9579,1.9526,1.9501,1.9457,1.9418,1.9352,1.9348,1.9315,1.9293,1.9265,1.9231,1.9265,1.9263,1.9259,1.917,1.9172,1.9166,1.9222,1.9221,1.922,1.9174,0,1.9794,1.9714,1.9685,1.9618,1.9576,1.9554,1.9514,1.9473,1.9445,1.9405,1.9373,1.9326,1.9325,1.9305,1.9277,1.9241,1.9212,1.9244,1.9184,1.9182,1.9197,1.9157,1.916,1.9119,1.9167,1.9166,1.9165,0,1.9737,1.9693,1.9623,1.9569,1.955,1.9516,1.9465,1.9426,1.9379,1.936,1.9324,1.9304,1.9255,1.9264,1.9196,1.9218,1.9192,1.9171,1.9168,1.9161,1.9172,1.9148,1.9105,1.9098,1.9155,1.9156,1.9157,0,1.9726,1.965,1.9598,1.9575,1.9511,1.9487,1.9459,1.9413,1.9382,1.9337,1.9317,1.9267,1.9239,1.92,1.9166,1.9176,1.91,1.9107,1.9082,1.9083,1.9067,1.9068,1.9018,1.9051,1.9051,1.9051,1.9051,0,1.9685,1.9642,1.9593,1.9561,1.9513,1.9479,1.9432,1.9402,1.9361,1.9322,1.9299,1.9263,1.9221,1.9179,1.9152,1.9099,1.9087,1.907,1.9063,1.9071,1.9073,1.9053,1.9055,1.905,1.905,1.905,1.9051,0,1.9665,1.963,1.9572,1.9516,1.9501,1.9468,1.9419,1.9387,1.9358,1.9309,1.9295,1.9249,1.9198,1.9161,1.9095,1.9077,1.902,1.9014,1.9037,1.9033,1.9011,1.9013,1.8945,1.8935,1.8976,1.8975,1.8975,0,1.964,1.9607,1.9548,1.9521,1.9493,1.945,1.9419,1.9385,1.9353,1.9297,1.9271,1.9219,1.9176,1.9095,1.9055,1.9005,1.8996,1.8976,1.8988,1.8998,1.8995,1.8998,1.8994,1.8974,1.8974,1.8974,1.8974,0,1.96,1.9585,1.9542,1.9493,1.9457,1.9417,1.9376,1.9354,1.9312,1.9278,1.9227,1.9193,1.9126,1.9075,1.902,1.899,1.8974,1.897,1.8962,1.897,1.8984,1.8975,1.9031,1.8972,1.8972,1.8972,1.8972,1.8972,1.9577,1.9546,1.95,1.9453,1.9419,1.9381,1.9348,1.9315,1.9272,1.9215,1.9197,1.9144,1.9096,1.9022,1.8991,1.8948,1.8948,1.8936,1.8933,1.893,1.8931,1.8992,1.8938,1.8938,1.8938,1.8938,1.8938,0,1.9535,1.9504,1.9462,1.9405,1.9368,1.9358,1.9312,1.9281,1.9235,1.9193,1.9151,1.9091,1.9041,1.8997,1.8944,1.8918,1.8909,1.8905,1.8907,1.89,1.8934,1.8946,1.8913,1.8913,1.8913,1.8913,1.8913,1.8913,1.9509,1.9457,1.9436,1.9367,1.9336,1.9284,1.9258,1.9223,1.9189,1.9124,1.9083,1.9055,1.9011,1.8956,1.8909,1.8897,1.8878,1.8876,1.8862,1.8895,1.8897,1.89,1.8912,1.8872,1.8872,1.8832,1.8831,1.8831]}]]